User: anonymous   Login
Location: Libas
(9.8833°N, 125.9833°E)
Time: 16:37:28
(UTC+00:00)
Language:

Nadezhda 4 Rocket - Orbit

View from above orbital plane
View from above orbital plane
View from above satellite
View from above satellite

Ground track
Ground track

The orbit data is extracted from the following two-line orbital elements,

1 23180U 94041B   21018.78573294  .00000127  00000-0  11052-3 0  9991
2 23180  82.9452  35.0181 0029761 144.7671  28.2403 13.77987556333274
Epoch (UTC): 18 January 2021 18:51:27
Eccentricity: 0.0029761
inclination: 82.9452°
perigee height: 949 km
apogee height: 993 km
right ascension of ascending node: 35.0181°
argument of perigee: 144.7671°
revolutions per day: 13.77987556
mean anomaly at epoch: 28.2403°
orbit number at epoch: 33327

The dashed part of the orbit path shows where the satellite is in the earth's shadow,  

DLR